When you browse on this site, cookies collect data to enhance your experience and personalize the content and advertising you see.
Visit our Privacy Policy to learn more. By continuing to use the site, you agree to this use of cookies and data.
EN

Hourly Weather Gogolevka

Today, 27 September, Sunday

Time Temperature Precipitation Wind Pressure Humidity
00:00 +15°C° 0 mm 5 mps 739 mmHg 63%
01:00 +15°C° 0 mm 5 mps 739 mmHg 62%
02:00 +14°C° 0 mm 5 mps 739 mmHg 61%
03:00 +14°C° 0 mm 5 mps 739 mmHg 59%
04:00 +13°C° 0 mm 5 mps 739 mmHg 57%
05:00 +13°C° 0 mm 5 mps 738 mmHg 56%
06:00 +13°C° 0 mm 5 mps 739 mmHg 57%
07:00 +13°C° 0 mm 6 mps 739 mmHg 59%
08:00 +14°C° 0 mm 6 mps 739 mmHg 60%
09:00 +15°C° 0 mm 7 mps 739 mmHg 58%
10:00 +16°C° 0 mm 7 mps 739 mmHg 56%
11:00 +18°C° 0 mm 7 mps 739 mmHg 54%
12:00 +18°C° 0 mm 7 mps 739 mmHg 55%
13:00 +20°C° 0 mm 8 mps 739 mmHg 55%
14:00 +20°C° 0 mm 8 mps 739 mmHg 55%
15:00 +18°C° 0.1 mm 7 mps 739 mmHg 59%
16:00 +17°C° 0.1 mm 7 mps 739 mmHg 62%
17:00 +16°C° 0.1 mm 6 mps 739 mmHg 66%
18:00 +15°C° 0.5 mm 6 mps 739 mmHg 71%
19:00 +14°C° 0.5 mm 6 mps 739 mmHg 77%
20:00 +13°C° 0.5 mm 6 mps 739 mmHg 83%
21:00 +13°C° 0.2 mm 6 mps 739 mmHg 85%
22:00 +12°C° 0.2 mm 5 mps 740 mmHg 87%
23:00 +12°C° 0.2 mm 5 mps 740 mmHg 90%

Tomorrow, 28 September, Monday

Time Temperature Precipitation Wind Pressure Humidity
00:00 +12°C° 0 mm 4 mps 740 mmHg 90%
01:00 +12°C° 0 mm 4 mps 740 mmHg 90%
02:00 +12°C° 0 mm 3 mps 740 mmHg 90%
03:00 +12°C° 0 mm 3 mps 741 mmHg 89%
04:00 +11°C° 0 mm 3 mps 741 mmHg 89%
05:00 +10°C° 0 mm 3 mps 741 mmHg 88%
06:00 +10°C° 0 mm 3 mps 742 mmHg 88%
07:00 +10°C° 0 mm 4 mps 742 mmHg 87%
08:00 +10°C° 0 mm 4 mps 743 mmHg 87%
09:00 +11°C° 0 mm 4 mps 743 mmHg 82%
10:00 +12°C° 0 mm 4 mps 744 mmHg 76%
11:00 +13°C° 0 mm 4 mps 744 mmHg 71%
12:00 +14°C° 0 mm 4 mps 745 mmHg 67%
13:00 +15°C° 0 mm 4 mps 745 mmHg 62%
14:00 +17°C° 0 mm 4 mps 745 mmHg 57%
15:00 +15°C° 0 mm 4 mps 745 mmHg 61%
16:00 +16°C° 0 mm 3 mps 745 mmHg 66%
17:00 +15°C° 0 mm 2 mps 745 mmHg 71%
18:00 +14°C° 0 mm 2 mps 745 mmHg 72%
19:00 +13°C° 0 mm 3 mps 745 mmHg 74%
20:00 +12°C° 0 mm 3 mps 745 mmHg 76%
21:00 +12°C° 0 mm 3 mps 746 mmHg 75%
22:00 +12°C° 0 mm 3 mps 746 mmHg 75%
23:00 +12°C° 0 mm 3 mps 746 mmHg 75%

Day after tomorrow, 29 September, Tuesday

Time Temperature Precipitation Wind Pressure Humidity
00:00 +11°C° 0 mm 3 mps 745 mmHg 77%
01:00 +11°C° 0 mm 3 mps 745 mmHg 78%
02:00 +10°C° 0 mm 3 mps 745 mmHg 80%
03:00 +10°C° 0 mm 3 mps 745 mmHg 80%
04:00 +10°C° 0 mm 3 mps 745 mmHg 80%
05:00 +9°C° 0 mm 3 mps 745 mmHg 80%
06:00 +10°C° 0 mm 3 mps 745 mmHg 78%
07:00 +11°C° 0 mm 3 mps 745 mmHg 76%
08:00 +12°C° 0 mm 3 mps 744 mmHg 74%
09:00 +13°C° 0 mm 3 mps 744 mmHg 69%
10:00 +16°C° 0 mm 3 mps 744 mmHg 65%
11:00 +17°C° 0 mm 3 mps 744 mmHg 61%
12:00 +18°C° 0 mm 3 mps 744 mmHg 61%
13:00 +18°C° 0 mm 3 mps 744 mmHg 62%
14:00 +19°C° 0 mm 3 mps 744 mmHg 62%
15:00 +18°C° 0 mm 3 mps 743 mmHg 68%
16:00 +18°C° 0 mm 3 mps 743 mmHg 75%
17:00 +17°C° 0 mm 2 mps 743 mmHg 81%
18:00 +16°C° 0 mm 2 mps 743 mmHg 84%
19:00 +14°C° 0 mm 3 mps 743 mmHg 87%
20:00 +13°C° 0 mm 3 mps 743 mmHg 89%
21:00 +12°C° 0 mm 3 mps 743 mmHg 89%
22:00 +12°C° 0 mm 3 mps 743 mmHg 89%
23:00 +12°C° 0 mm 2 mps 742 mmHg 89%

30 September, Wednesday

Time Temperature Precipitation Wind Pressure Humidity
00:00 +11°C° 0 mm 3 mps 742 mmHg 89%
01:00 +11°C° 0 mm 3 mps 742 mmHg 88%
02:00 +11°C° 0 mm 3 mps 742 mmHg 87%
03:00 +10°C° 0 mm 3 mps 742 mmHg 85%
04:00 +10°C° 0 mm 3 mps 742 mmHg 84%
05:00 +10°C° 0 mm 3 mps 741 mmHg 82%
06:00 +10°C° 0 mm 3 mps 741 mmHg 78%
07:00 +11°C° 0 mm 4 mps 741 mmHg 75%
08:00 +11°C° 0 mm 4 mps 741 mmHg 72%
09:00 +12°C° 0 mm 4 mps 741 mmHg 69%
10:00 +13°C° 0 mm 4 mps 741 mmHg 65%
11:00 +14°C° 0 mm 5 mps 741 mmHg 62%
12:00 +14°C° 0 mm 5 mps 741 mmHg 61%
13:00 +14°C° 0 mm 5 mps 741 mmHg 60%
14:00 +14°C° 0 mm 5 mps 741 mmHg 59%
15:00 +14°C° 0 mm 4 mps 741 mmHg 60%
16:00 +13°C° 0 mm 4 mps 741 mmHg 62%
17:00 +13°C° 0 mm 4 mps 740 mmHg 63%
18:00 +13°C° 0 mm 4 mps 741 mmHg 63%
19:00 +12°C° 0 mm 4 mps 741 mmHg 63%
20:00 +11°C° 0 mm 4 mps 741 mmHg 63%
21:00 +11°C° 0 mm 4 mps 741 mmHg 63%
22:00 +10°C° 0 mm 4 mps 741 mmHg 63%
23:00 +10°C° 0 mm 4 mps 740 mmHg 64%

1 October, Thursday

Time Temperature Precipitation Wind Pressure Humidity
00:00 +10°C° 0 mm 4 mps 740 mmHg 63%
01:00 +8°C° 0 mm 4 mps 740 mmHg 63%
02:00 +8°C° 0 mm 4 mps 740 mmHg 62%
03:00 +8°C° 0 mm 4 mps 740 mmHg 61%
04:00 +8°C° 0 mm 4 mps 740 mmHg 61%
05:00 +7°C° 0 mm 4 mps 740 mmHg 60%
06:00 +8°C° 0 mm 4 mps 740 mmHg 60%
07:00 +8°C° 0 mm 5 mps 740 mmHg 59%
08:00 +9°C° 0 mm 5 mps 740 mmHg 58%
09:00 +10°C° 0 mm 5 mps 740 mmHg 57%
10:00 +13°C° 0 mm 6 mps 740 mmHg 55%
11:00 +14°C° 0 mm 6 mps 740 mmHg 54%
12:00 +14°C° 0 mm 6 mps 740 mmHg 53%
13:00 +15°C° 0 mm 6 mps 740 mmHg 53%
14:00 +15°C° 0 mm 6 mps 740 mmHg 53%
15:00 +14°C° 0 mm 6 mps 740 mmHg 57%
16:00 +13°C° 0 mm 6 mps 740 mmHg 62%
17:00 +11°C° 0 mm 6 mps 740 mmHg 67%
18:00 +12°C° 0.1 mm 5 mps 740 mmHg 71%
19:00 +10°C° 0.1 mm 5 mps 740 mmHg 76%
20:00 +10°C° 0.1 mm 5 mps 740 mmHg 80%
21:00 +10°C° 0 mm 5 mps 740 mmHg 80%
22:00 +10°C° 0 mm 5 mps 740 mmHg 81%
23:00 +10°C° 0 mm 5 mps 740 mmHg 82%

2 October, Friday

Time Temperature Precipitation Wind Pressure Humidity
00:00 +10°C° 0 mm 5 mps 740 mmHg 83%
01:00 +10°C° 0 mm 5 mps 740 mmHg 85%
02:00 +10°C° 0 mm 5 mps 740 mmHg 87%
03:00 +10°C° 0 mm 5 mps 740 mmHg 87%
04:00 +10°C° 0 mm 5 mps 740 mmHg 87%
05:00 +10°C° 0 mm 5 mps 740 mmHg 87%
06:00 +10°C° 0 mm 5 mps 740 mmHg 83%
07:00 +12°C° 0 mm 5 mps 740 mmHg 78%
08:00 +12°C° 0 mm 5 mps 740 mmHg 74%
09:00 +13°C° 0 mm 5 mps 741 mmHg 74%
10:00 +13°C° 0 mm 6 mps 741 mmHg 73%
11:00 +14°C° 0 mm 6 mps 741 mmHg 72%
12:00 +14°C° 0 mm 6 mps 741 mmHg 70%
13:00 +14°C° 0 mm 5 mps 741 mmHg 68%
14:00 +14°C° 0 mm 5 mps 741 mmHg 66%
15:00 +14°C° 0 mm 5 mps 741 mmHg 67%
16:00 +13°C° 0 mm 4 mps 741 mmHg 67%
17:00 +13°C° 0 mm 4 mps 741 mmHg 67%
18:00 +13°C° 0 mm 4 mps 742 mmHg 68%
19:00 +12°C° 0 mm 5 mps 742 mmHg 70%
20:00 +12°C° 0 mm 5 mps 742 mmHg 71%
21:00 +12°C° 0 mm 5 mps 742 mmHg 71%
22:00 +12°C° 0 mm 5 mps 742 mmHg 71%
23:00 +11°C° 0 mm 4 mps 742 mmHg 71%
Show more